Location: Unspecified
(0.0000°N, 0.0000°E)
Time: 15:31:10
(UTC+00:00)

NOSS 2-2 (D) - Visible Passes

Search period start: 18 March 2019 00:00
Search period end: 28 March 2019 00:00
Orbit: 507 x 1702 km, 63.3° (Epoch: 26 February)

Date Brightness Start Highest point End Pass type
(mag) Time Alt. Az. Time Alt. Az. Time Alt. Az.
18 Mar 3.8 05:09:11 10° SW 05:13:30 41° WNW 05:17:08 10° N visible
18 Mar 8.2 18:35:23 10° W 18:39:39 13° WSW 18:44:04 10° SW visible
19 Mar 3.6 04:28:03 64° SSE 04:28:28 70° ESE 04:32:19 10° NNE visible
20 Mar 6.4 03:46:09 13° ENE 03:46:09 13° ENE 03:46:38 10° ENE visible
21 Mar 5.6 04:51:14 11° NNW 04:51:14 11° NNW 04:51:31 10° NNW visible
